Location: Contre
(49.7477°N, 2.0963°E)
Time: 20:33:21
(UTC+00:00)

CZ-2D DEB - Visible Passes

Search period start: 02 March 2024 00:00
Search period end: 12 March 2024 00:00
Orbit: 767 x 1108 km, 98.4° (Epoch: 01 March)

Date Brightness Start Highest point End Pass type
(mag) Time Alt. Az. Time Alt. Az. Time Alt. Az.
06 Mar ? 00:41:09 11° N 00:41:09 11° N 00:41:19 10° N visible
07 Mar ? 00:54:43 11° N 00:54:43 11° N 00:54:59 10° N visible
08 Mar ? 01:08:17 12° N 01:08:17 12° N 01:08:37 10° N visible
08 Mar ? 23:38:01 11° NNE 23:38:01 11° NNE 23:38:18 10° NNE visible
09 Mar ? 01:21:51 12° NNW 01:21:51 12° NNW 01:22:12 10° NNW visible
09 Mar ? 23:51:35 13° NNE 23:51:35 13° NNE 23:52:16 10° N visible
10 Mar ? 01:35:24 12° NNW 01:35:24 12° NNW 01:35:46 10° NNW visible
11 Mar ? 00:05:09 14° NNE 00:05:09 14° NNE 00:06:07 10° N visible
11 Mar ? 01:48:58 12° NNW 01:48:58 12° NNW 01:49:16 10° NNW visible
